Location: Kellogg
(38.0159°N, 90.0546°W)
Time: 09:22:17
(UTC+00:00)

Altair - Pass Details

Date: 20 September 2024
Orbit: 1501 x 1682 km, 47.2° (Epoch: 07 October)

Event Time Altitude Azimuth Distance (km) Brightness Sun altitude
Rises 07:26:39 0° 243° (WSW) 4,800 - -45.6°
Reaches altitude 10° 07:29:43 10° 244° (WSW) 3,840 - -45.2°
Maximum altitude 07:39:37 79° 331° (NNW) 1,688 - -44.1°
Exits shadow 07:41:45 61° 40° (NE) 1,854 7.9 -43.8°
Drops below altitude 10° 07:49:50 10° 59° (ENE) 3,946 10.2 -42.8°
Sets 07:53:02 0° 61° (ENE) 4,939 10.9 -42.4°
